Time,TemperatureF,DewpointF,PressureIn,WindDirection,WindDirectionDegrees,WindSpeedMPH,WindSpeedGustMPH,Humidity,HourlyPrecipIn,Conditions,Clouds,dailyrainin,SoftwareType,DateUTC
2013-03-10 04:57:00,32.7,20.8,29.85,North,-999,0.0,0.0,61,0.00,,,-99.99,FreeWX 2.04,2013-03-10 08:57:00,
2013-03-10 04:59:00,32.7,20.8,29.85,North,-999,0.0,0.0,61,0.00,,,-99.99,FreeWX 2.04,2013-03-10 08:59:00,
2013-03-10 05:03:00,32.7,20.8,29.82,North,-999,0.0,0.0,61,0.00,,,-99.99,FreeWX 2.04,2013-03-10 09:03:00,
2013-03-10 07:27:00,33.8,23.0,29.76,North,-999,0.0,0.0,64,0.00,,,-99.99,FreeWX 2.04,2013-03-10 11:27:00,
2013-03-10 07:34:00,33.8,23.0,29.79,North,-999,0.0,0.0,64,0.00,,,-99.99,FreeWX 2.04,2013-03-10 11:34:00,
2013-03-10 07:39:00,33.8,23.0,29.79,North,-999,0.0,0.0,64,0.00,,,-99.99,FreeWX 2.04,2013-03-10 11:39:00,
2013-03-10 07:44:00,33.8,23.0,29.79,North,-999,0.0,0.0,64,0.00,,,-99.99,FreeWX 2.04,2013-03-10 11:44:00,
2013-03-10 07:49:00,33.8,23.0,29.79,North,-999,0.0,0.0,64,0.00,,,-99.99,FreeWX 2.04,2013-03-10 11:49:00,
2013-03-10 07:54:00,33.8,23.0,29.79,North,-999,0.0,0.0,64,0.00,,,-99.99,FreeWX 2.04,2013-03-10 11:54:00,
2013-03-10 07:59:00,33.8,23.0,29.79,North,-999,0.0,0.0,64,0.00,,,-99.99,FreeWX 2.04,2013-03-10 11:59:00,
2013-03-10 08:04:00,33.8,23.4,29.79,North,-999,0.0,0.0,65,0.00,,,-99.99,FreeWX 2.04,2013-03-10 12:04:00,
2013-03-10 08:09:00,33.8,23.4,29.79,North,-999,0.0,0.0,65,0.00,,,-99.99,FreeWX 2.04,2013-03-10 12:09:00,
2013-03-10 08:14:00,33.8,23.4,29.79,North,-999,0.0,0.0,65,0.00,,,-99.99,FreeWX 2.04,2013-03-10 12:14:00,
2013-03-10 08:19:00,34.0,23.5,29.79,North,-999,0.0,0.0,65,0.00,,,-99.99,FreeWX 2.04,2013-03-10 12:19:00,
2013-03-10 08:24:00,34.0,23.5,29.79,North,-999,0.0,0.0,65,0.00,,,-99.99,FreeWX 2.04,2013-03-10 12:24:00,
2013-03-10 08:29:00,34.2,24.1,29.79,North,-999,0.0,0.0,66,0.00,,,-99.99,FreeWX 2.04,2013-03-10 12:29:00,
2013-03-10 08:34:00,34.3,24.3,29.79,North,-999,0.0,0.0,66,0.00,,,-99.99,FreeWX 2.04,2013-03-10 12:34:00,
2013-03-10 08:39:00,34.3,24.3,29.79,North,-999,0.0,0.0,66,0.00,,,-99.99,FreeWX 2.04,2013-03-10 12:39:00,
2013-03-10 08:44:00,34.5,24.4,29.79,North,-999,0.0,0.0,66,0.00,,,-99.99,FreeWX 2.04,2013-03-10 12:44:00,
2013-03-10 08:49:00,34.7,24.8,29.79,North,-999,0.0,0.0,67,0.00,,,-99.99,FreeWX 2.04,2013-03-10 12:49:00,
2013-03-10 08:54:00,34.7,24.8,29.79,North,-999,0.0,3.1,67,0.00,,,-99.99,FreeWX 2.04,2013-03-10 12:54:00,
2013-03-10 08:59:00,34.7,24.8,29.79,North,-999,0.0,0.0,67,0.00,,,-99.99,FreeWX 2.04,2013-03-10 12:59:00,
2013-03-10 09:04:00,34.9,25.0,29.79,North,-999,0.0,0.0,67,0.00,,,-99.99,FreeWX 2.04,2013-03-10 13:04:00,
2013-03-10 09:09:00,34.9,25.0,29.79,North,-999,0.0,0.0,67,0.00,,,-99.99,FreeWX 2.04,2013-03-10 13:09:00,
2013-03-10 09:14:00,34.9,25.3,29.79,North,-999,0.0,0.0,68,0.00,,,-99.99,FreeWX 2.04,2013-03-10 13:14:00,
2013-03-10 09:19:00,35.1,25.5,29.79,North,-999,0.0,0.0,68,0.00,,,-99.99,FreeWX 2.04,2013-03-10 13:19:00,
2013-03-10 09:24:00,35.1,25.5,29.79,North,-999,0.0,0.0,68,0.00,,,-99.99,FreeWX 2.04,2013-03-10 13:24:00,
2013-03-10 09:29:00,35.2,25.7,29.79,North,-999,0.0,0.0,68,0.00,,,-99.99,FreeWX 2.04,2013-03-10 13:29:00,
2013-03-10 09:34:00,35.2,25.7,29.79,North,-999,0.0,0.0,68,0.00,,,-99.99,FreeWX 2.04,2013-03-10 13:34:00,
2013-03-10 09:39:00,35.4,26.2,29.79,North,-999,0.0,0.0,69,0.00,,,-99.99,FreeWX 2.04,2013-03-10 13:39:00,
2013-03-10 09:44:00,35.6,26.4,29.79,North,-999,0.0,0.0,69,0.00,,,-99.99,FreeWX 2.04,2013-03-10 13:44:00,
2013-03-10 09:49:00,35.8,26.6,29.79,North,-999,0.0,0.0,69,0.00,,,-99.99,FreeWX 2.04,2013-03-10 13:49:00,
2013-03-10 09:54:00,35.8,26.6,29.79,North,-999,0.0,0.0,69,0.00,,,-99.99,FreeWX 2.04,2013-03-10 13:54:00,
2013-03-10 09:59:00,36.0,26.8,29.79,North,-999,0.0,0.0,69,0.00,,,-99.99,FreeWX 2.04,2013-03-10 13:59:00,
2013-03-10 10:04:00,36.5,27.7,29.79,North,-999,0.0,0.0,70,0.00,,,-99.99,FreeWX 2.04,2013-03-10 14:04:00,
2013-03-10 10:09:00,37.0,28.6,29.79,North,-999,0.0,0.0,71,0.00,,,-99.99,FreeWX 2.04,2013-03-10 14:09:00,
2013-03-10 10:14:00,37.4,28.9,29.79,North,-999,0.0,0.0,71,0.00,,,-99.99,FreeWX 2.04,2013-03-10 14:14:00,
2013-03-10 10:19:00,37.6,29.1,29.79,North,-999,0.0,2.7,71,0.00,,,-99.99,FreeWX 2.04,2013-03-10 14:19:00,
2013-03-10 10:24:00,37.6,28.8,29.79,North,-999,0.0,4.5,70,0.00,,,-99.99,FreeWX 2.04,2013-03-10 14:24:00,
2013-03-10 10:29:00,37.6,28.8,29.79,North,-999,0.0,3.1,70,0.00,,,-99.99,FreeWX 2.04,2013-03-10 14:29:00,
2013-03-10 10:34:00,37.9,29.3,29.79,North,-999,0.0,4.5,71,0.00,,,-99.99,FreeWX 2.04,2013-03-10 14:34:00,
2013-03-10 10:39:00,38.1,29.5,29.79,North,-999,0.0,0.0,71,0.00,,,-99.99,FreeWX 2.04,2013-03-10 14:39:00,
2013-03-10 10:44:00,38.5,29.8,29.79,North,-999,0.0,3.1,71,0.00,,,-99.99,FreeWX 2.04,2013-03-10 14:44:00,
2013-03-10 10:49:00,38.7,30.0,29.76,North,-999,0.0,0.0,71,0.00,,,-99.99,FreeWX 2.04,2013-03-10 14:49:00,
2013-03-10 10:54:00,39.2,30.9,29.76,North,-999,0.0,0.0,72,0.00,,,-99.99,FreeWX 2.04,2013-03-10 14:54:00,
2013-03-10 10:59:00,39.7,31.8,29.76,North,-999,0.0,0.0,73,0.00,,,-99.99,FreeWX 2.04,2013-03-10 14:59:00,
2013-03-10 11:04:00,40.3,32.4,29.76,North,-999,0.0,0.0,73,0.00,,,-99.99,FreeWX 2.04,2013-03-10 15:04:00,
2013-03-10 11:09:00,41.2,33.6,29.76,North,-999,0.0,0.0,74,0.00,,,-99.99,FreeWX 2.04,2013-03-10 15:09:00,
2013-03-10 11:14:00,41.9,34.5,29.76,North,-999,0.0,0.0,75,0.00,,,-99.99,FreeWX 2.04,2013-03-10 15:14:00,
2013-03-10 11:19:00,42.3,34.5,29.76,North,-999,0.0,0.0,74,0.00,,,-99.99,FreeWX 2.04,2013-03-10 15:19:00,
2013-03-10 11:24:00,42.3,34.5,29.76,North,-999,0.0,0.0,74,0.00,,,-99.99,FreeWX 2.04,2013-03-10 15:24:00,
2013-03-10 11:29:00,42.4,34.3,29.76,North,-999,0.0,0.0,73,0.00,,,-99.99,FreeWX 2.04,2013-03-10 15:29:00,
2013-03-10 11:34:00,43.0,34.9,29.76,North,-999,0.0,0.0,73,0.00,,,-99.99,FreeWX 2.04,2013-03-10 15:34:00,
2013-03-10 11:39:00,43.3,35.2,29.76,North,-999,0.0,0.0,73,0.00,,,-99.99,FreeWX 2.04,2013-03-10 15:39:00,
2013-03-10 11:44:00,43.7,35.6,29.76,North,-999,0.0,0.0,73,0.00,,,-99.99,FreeWX 2.04,2013-03-10 15:44:00,
2013-03-10 11:49:00,43.3,34.9,29.76,North,-999,0.0,0.0,72,0.00,,,-99.99,FreeWX 2.04,2013-03-10 15:49:00,
2013-03-10 11:54:00,42.4,33.4,29.76,North,-999,0.0,0.0,70,0.00,,,-99.99,FreeWX 2.04,2013-03-10 15:54:00,
2013-03-10 11:59:00,41.7,32.4,29.76,North,-999,0.0,0.0,69,0.00,,,-99.99,FreeWX 2.04,2013-03-10 15:59:00,
2013-03-10 12:04:00,41.5,32.2,29.76,North,-999,0.0,0.0,69,0.00,,,-99.99,FreeWX 2.04,2013-03-10 16:04:00,
2013-03-10 12:09:00,41.4,32.4,29.76,North,-999,0.0,0.0,70,0.00,,,-99.99,FreeWX 2.04,2013-03-10 16:09:00,
2013-03-10 12:14:00,41.2,31.8,29.76,North,-999,0.0,0.0,69,0.00,,,-99.99,FreeWX 2.04,2013-03-10 16:14:00,
2013-03-10 12:19:00,41.5,32.5,29.76,North,-999,0.0,0.0,70,0.00,,,-99.99,FreeWX 2.04,2013-03-10 16:19:00,
2013-03-10 12:24:00,42.1,33.4,29.76,North,-999,0.0,0.0,71,0.00,,,-99.99,FreeWX 2.04,2013-03-10 16:24:00,
2013-03-10 12:29:00,42.4,34.0,29.76,North,-999,0.0,0.0,72,0.00,,,-99.99,FreeWX 2.04,2013-03-10 16:29:00,
2013-03-10 12:34:00,42.3,33.3,29.76,North,-999,0.0,0.0,70,0.00,,,-99.99,FreeWX 2.04,2013-03-10 16:34:00,
2013-03-10 12:39:00,42.1,33.1,29.76,North,-999,0.0,0.0,70,0.00,,,-99.99,FreeWX 2.04,2013-03-10 16:39:00,
2013-03-10 12:44:00,42.1,33.1,29.76,North,-999,0.0,0.0,70,0.00,,,-99.99,FreeWX 2.04,2013-03-10 16:44:00,
2013-03-10 12:49:00,42.3,33.3,29.76,North,-999,0.0,0.0,70,0.00,,,-99.99,FreeWX 2.04,2013-03-10 16:49:00,
2013-03-10 12:54:00,42.4,33.8,29.76,North,-999,0.0,0.0,71,0.00,,,-99.99,FreeWX 2.04,2013-03-10 16:54:00,
2013-03-10 12:59:00,42.3,33.3,29.76,North,-999,0.0,0.0,70,0.00,,,-99.99,FreeWX 2.04,2013-03-10 16:59:00,
2013-03-10 13:04:00,42.1,33.1,29.76,North,-999,0.0,0.0,70,0.00,,,-99.99,FreeWX 2.04,2013-03-10 17:04:00,
2013-03-10 13:09:00,42.4,33.8,29.76,North,-999,0.0,0.0,71,0.00,,,-99.99,FreeWX 2.04,2013-03-10 17:09:00,
2013-03-10 13:14:00,43.5,35.1,29.76,North,-999,0.0,0.0,72,0.00,,,-99.99,FreeWX 2.04,2013-03-10 17:14:00,
2013-03-10 13:19:00,44.4,36.3,29.76,North,-999,0.0,0.0,73,0.00,,,-99.99,FreeWX 2.04,2013-03-10 17:19:00,
2013-03-10 13:24:00,45.3,37.2,29.76,North,-999,0.0,0.0,73,0.00,,,-99.99,FreeWX 2.04,2013-03-10 17:24:00,
2013-03-10 13:29:00,46.0,37.9,29.76,North,-999,0.0,0.0,73,0.00,,,-99.99,FreeWX 2.04,2013-03-10 17:29:00,
2013-03-10 13:34:00,46.9,39.0,29.76,North,-999,0.0,0.0,74,0.00,,,-99.99,FreeWX 2.04,2013-03-10 17:34:00,
2013-03-10 13:39:00,47.1,38.8,29.76,North,-999,0.0,0.0,73,0.00,,,-99.99,FreeWX 2.04,2013-03-10 17:39:00,
2013-03-10 13:44:00,47.1,38.5,29.76,North,-999,0.0,2.7,72,0.00,,,-99.99,FreeWX 2.04,2013-03-10 17:44:00,
2013-03-10 13:49:00,46.6,37.4,29.79,North,-999,0.0,3.1,70,0.00,,,-99.99,FreeWX 2.04,2013-03-10 17:49:00,
2013-03-10 13:54:00,46.0,36.1,29.79,North,-999,0.0,3.6,68,0.00,,,-99.99,FreeWX 2.04,2013-03-10 17:54:00,
2013-03-10 13:59:00,45.1,34.2,29.79,North,-999,0.0,3.1,65,0.00,,,-99.99,FreeWX 2.04,2013-03-10 17:59:00,
2013-03-10 14:04:00,44.8,33.8,29.79,North,-999,0.0,0.0,65,0.00,,,-99.99,FreeWX 2.04,2013-03-10 18:04:00,
2013-03-10 14:09:00,44.8,33.8,29.79,North,-999,0.0,0.0,65,0.00,,,-99.99,FreeWX 2.04,2013-03-10 18:09:00,
2013-03-10 14:14:00,45.1,34.5,29.79,North,-999,0.0,0.0,66,0.00,,,-99.99,FreeWX 2.04,2013-03-10 18:14:00,
2013-03-10 14:19:00,45.3,34.7,29.76,North,-999,0.0,3.6,66,0.00,,,-99.99,FreeWX 2.04,2013-03-10 18:19:00,
2013-03-10 14:24:00,45.9,35.2,29.76,North,-999,0.0,0.0,66,0.00,,,-99.99,FreeWX 2.04,2013-03-10 18:24:00,
2013-03-10 14:29:00,46.4,35.6,29.76,North,-999,0.0,0.0,66,0.00,,,-99.99,FreeWX 2.04,2013-03-10 18:29:00,
2013-03-10 14:34:00,46.0,33.8,29.76,North,-999,0.0,0.0,62,0.00,,,-99.99,FreeWX 2.04,2013-03-10 18:34:00,
2013-03-10 14:39:00,45.3,32.7,29.76,North,-999,0.0,0.0,61,0.00,,,-99.99,FreeWX 2.04,2013-03-10 18:39:00,
2013-03-10 14:44:00,45.1,32.5,29.76,North,-999,0.0,0.0,61,0.00,,,-99.99,FreeWX 2.04,2013-03-10 18:44:00,
2013-03-10 14:49:00,44.8,31.8,29.76,North,-999,0.0,0.0,60,0.00,,,-99.99,FreeWX 2.04,2013-03-10 18:49:00,
2013-03-10 14:54:00,45.0,32.4,29.76,North,-999,0.0,0.0,61,0.00,,,-99.99,FreeWX 2.04,2013-03-10 18:54:00,
2013-03-10 14:59:00,44.8,32.2,29.76,North,-999,0.0,0.0,61,0.00,,,-99.99,FreeWX 2.04,2013-03-10 18:59:00,
2013-03-10 15:04:00,45.0,32.4,29.76,North,-999,0.0,0.0,61,0.00,,,-99.99,FreeWX 2.04,2013-03-10 19:04:00,
2013-03-10 15:09:00,45.0,32.4,29.76,North,-999,0.0,0.0,61,0.00,,,-99.99,FreeWX 2.04,2013-03-10 19:09:00,
2013-03-10 15:14:00,44.6,31.6,29.76,North,-999,0.0,0.0,60,0.00,,,-99.99,FreeWX 2.04,2013-03-10 19:14:00,
2013-03-10 15:19:00,44.1,30.7,29.76,North,-999,0.0,0.0,59,0.00,,,-99.99,FreeWX 2.04,2013-03-10 19:19:00,
2013-03-10 15:24:00,44.1,30.7,29.76,North,-999,0.0,0.0,59,0.00,,,-99.99,FreeWX 2.04,2013-03-10 19:24:00,
2013-03-10 15:29:00,44.2,31.3,29.76,North,-999,0.0,0.0,60,0.00,,,-99.99,FreeWX 2.04,2013-03-10 19:29:00,
2013-03-10 15:34:00,44.2,31.3,29.76,North,-999,0.0,0.0,60,0.00,,,-99.99,FreeWX 2.04,2013-03-10 19:34:00,
2013-03-10 15:39:00,44.2,31.3,29.76,North,-999,0.0,0.0,60,0.00,,,-99.99,FreeWX 2.04,2013-03-10 19:39:00,
2013-03-10 15:44:00,44.6,32.0,29.76,North,-999,0.0,0.0,61,0.00,,,-99.99,FreeWX 2.04,2013-03-10 19:44:00,
2013-03-10 15:49:00,46.0,34.5,29.76,North,-999,0.0,0.0,64,0.00,,,-99.99,FreeWX 2.04,2013-03-10 19:49:00,
2013-03-10 15:54:00,46.9,35.8,29.76,North,-999,0.0,0.0,65,0.00,,,-99.99,FreeWX 2.04,2013-03-10 19:54:00,
2013-03-10 15:59:00,46.9,35.1,29.76,North,-999,0.0,0.0,63,0.00,,,-99.99,FreeWX 2.04,2013-03-10 19:59:00,
2013-03-10 16:04:00,46.4,33.6,29.76,North,-999,0.0,0.0,61,0.00,,,-99.99,FreeWX 2.04,2013-03-10 20:04:00,
2013-03-10 16:09:00,45.1,30.7,29.76,North,-999,0.0,0.0,57,0.00,,,-99.99,FreeWX 2.04,2013-03-10 20:09:00,
2013-03-10 16:14:00,43.5,28.4,29.76,North,-999,0.0,0.0,55,0.00,,,-99.99,FreeWX 2.04,2013-03-10 20:14:00,
2013-03-10 16:19:00,42.4,27.9,29.79,North,-999,0.0,0.0,56,0.00,,,-99.99,FreeWX 2.04,2013-03-10 20:19:00,
2013-03-10 16:24:00,41.7,27.1,29.79,North,-999,0.0,0.0,56,0.00,,,-99.99,FreeWX 2.04,2013-03-10 20:24:00,
2013-03-10 16:29:00,41.4,27.3,29.79,North,-999,0.0,0.0,57,0.00,,,-99.99,FreeWX 2.04,2013-03-10 20:29:00,
2013-03-10 16:34:00,41.2,27.1,29.79,North,-999,0.0,0.0,57,0.00,,,-99.99,FreeWX 2.04,2013-03-10 20:34:00,
2013-03-10 16:39:00,40.8,27.1,29.79,North,-999,0.0,0.0,58,0.00,,,-99.99,FreeWX 2.04,2013-03-10 20:39:00,
2013-03-10 16:50:00,41.5,28.8,29.79,North,-999,0.0,0.0,60,0.00,,,-99.99,FreeWX 2.04,2013-03-10 20:50:00,
2013-03-10 16:55:00,41.7,28.9,29.79,North,-999,0.0,0.0,60,0.00,,,-99.99,FreeWX 2.04,2013-03-10 20:55:00,
2013-03-10 17:00:00,42.1,29.3,29.79,North,-999,0.0,0.0,60,0.00,,,-99.99,FreeWX 2.04,2013-03-10 21:00:00,
2013-03-10 17:05:00,42.1,28.8,29.79,North,-999,0.0,0.0,59,0.00,,,-99.99,FreeWX 2.04,2013-03-10 21:05:00,
2013-03-10 17:10:00,42.1,28.8,29.79,North,-999,0.0,0.0,59,0.00,,,-99.99,FreeWX 2.04,2013-03-10 21:10:00,
2013-03-10 17:15:00,42.6,30.2,29.79,North,-999,0.0,0.0,61,0.00,,,-99.99,FreeWX 2.04,2013-03-10 21:15:00,
2013-03-10 17:20:00,43.0,30.4,29.79,North,-999,0.0,0.0,61,0.00,,,-99.99,FreeWX 2.04,2013-03-10 21:20:00,
2013-03-10 17:25:00,44.1,32.4,29.79,North,-999,0.0,0.0,63,0.00,,,-99.99,FreeWX 2.04,2013-03-10 21:25:00,
2013-03-10 17:30:00,44.6,32.7,29.79,North,-999,0.0,0.0,63,0.00,,,-99.99,FreeWX 2.04,2013-03-10 21:30:00,
2013-03-10 17:35:00,44.6,32.4,29.76,North,-999,0.0,0.0,62,0.00,,,-99.99,FreeWX 2.04,2013-03-10 21:35:00,
2013-03-10 17:40:00,44.6,32.0,29.76,North,-999,0.0,0.0,61,0.00,,,-99.99,FreeWX 2.04,2013-03-10 21:40:00,
2013-03-10 17:45:00,44.8,32.2,29.76,North,-999,0.0,0.0,61,0.00,,,-99.99,FreeWX 2.04,2013-03-10 21:45:00,
2013-03-10 17:50:00,45.0,32.7,29.76,North,-999,0.0,0.0,62,0.00,,,-99.99,FreeWX 2.04,2013-03-10 21:50:00,
2013-03-10 17:55:00,44.1,30.2,29.76,North,-999,0.0,0.0,58,0.00,,,-99.99,FreeWX 2.04,2013-03-10 21:55:00,
2013-03-10 18:00:00,43.3,30.0,29.76,North,-999,0.0,0.0,59,0.00,,,-99.99,FreeWX 2.04,2013-03-10 22:00:00,
2013-03-10 18:05:00,43.5,30.6,29.76,North,-999,0.0,0.0,60,0.00,,,-99.99,FreeWX 2.04,2013-03-10 22:05:00,
2013-03-10 18:10:00,43.3,30.4,29.76,North,-999,0.0,0.0,60,0.00,,,-99.99,FreeWX 2.04,2013-03-10 22:10:00,
2013-03-10 18:15:00,43.5,30.9,29.76,North,-999,0.0,0.0,61,0.00,,,-99.99,FreeWX 2.04,2013-03-10 22:15:00,
2013-03-10 18:20:00,43.7,31.1,29.76,North,-999,0.0,0.0,61,0.00,,,-99.99,FreeWX 2.04,2013-03-10 22:20:00,
2013-03-10 18:25:00,43.3,30.7,29.76,North,-999,0.0,0.0,61,0.00,,,-99.99,FreeWX 2.04,2013-03-10 22:25:00,
2013-03-10 18:30:00,42.4,28.8,29.76,North,-999,0.0,4.0,58,0.00,,,-99.99,FreeWX 2.04,2013-03-10 22:30:00,
2013-03-10 18:35:00,41.2,27.1,29.74,ESE,109,1.0,3.6,57,0.00,,,-99.99,FreeWX 2.04,2013-03-10 22:35:00,
2013-03-10 18:40:00,40.3,26.2,29.74,North,-999,0.0,0.0,57,0.00,,,-99.99,FreeWX 2.04,2013-03-10 22:40:00,
2013-03-10 18:45:00,39.4,25.5,29.74,North,-999,0.0,0.0,57,0.00,,,-99.99,FreeWX 2.04,2013-03-10 22:45:00,
2013-03-10 18:50:00,39.2,26.1,29.76,North,-999,0.0,0.0,59,0.00,,,-99.99,FreeWX 2.04,2013-03-10 22:50:00,
2013-03-10 18:55:00,39.0,25.9,29.76,North,-999,0.0,0.0,59,0.00,,,-99.99,FreeWX 2.04,2013-03-10 22:55:00,
2013-03-10 19:00:00,38.8,26.2,29.76,North,-999,0.0,0.0,60,0.00,,,-99.99,FreeWX 2.04,2013-03-10 23:00:00,
2013-03-10 19:05:00,38.8,26.2,29.79,North,-999,0.0,0.0,60,0.00,,,-99.99,FreeWX 2.04,2013-03-10 23:05:00,
2013-03-10 19:10:00,38.5,25.9,29.79,North,-999,0.0,0.0,60,0.00,,,-99.99,FreeWX 2.04,2013-03-10 23:10:00,
2013-03-10 19:15:00,38.3,25.7,29.79,North,-999,0.0,0.0,60,0.00,,,-99.99,FreeWX 2.04,2013-03-10 23:15:00,
2013-03-10 19:20:00,38.3,26.1,29.79,North,-999,0.0,0.0,61,0.00,,,-99.99,FreeWX 2.04,2013-03-10 23:20:00,
2013-03-10 19:25:00,38.1,25.9,29.79,North,-999,0.0,0.0,61,0.00,,,-99.99,FreeWX 2.04,2013-03-10 23:25:00,
2013-03-10 19:30:00,38.3,26.4,29.79,North,-999,0.0,0.0,62,0.00,,,-99.99,FreeWX 2.04,2013-03-10 23:30:00,
2013-03-10 19:35:00,38.3,26.1,29.79,North,-999,0.0,0.0,61,0.00,,,-99.99,FreeWX 2.04,2013-03-10 23:35:00,
2013-03-10 19:40:00,38.5,26.6,29.79,North,-999,0.0,0.0,62,0.00,,,-99.99,FreeWX 2.04,2013-03-10 23:40:00,
2013-03-10 19:45:00,38.3,26.1,29.79,North,-999,0.0,0.0,61,0.00,,,-99.99,FreeWX 2.04,2013-03-10 23:45:00,
2013-03-10 19:50:00,38.5,26.6,29.79,North,-999,0.0,0.0,62,0.00,,,-99.99,FreeWX 2.04,2013-03-10 23:50:00,
2013-03-10 19:55:00,38.3,26.1,29.79,North,-999,0.0,0.0,61,0.00,,,-99.99,FreeWX 2.04,2013-03-10 23:55:00,
2013-03-10 20:00:00,38.1,26.2,29.79,North,-999,0.0,0.0,62,0.00,,,-99.99,FreeWX 2.04,2013-03-11 00:00:00,
2013-03-10 20:05:00,37.9,26.1,29.76,North,-999,0.0,0.0,62,0.00,,,-99.99,FreeWX 2.04,2013-03-11 00:05:00,
2013-03-10 20:10:00,37.8,25.5,29.76,North,-999,0.0,0.0,61,0.00,,,-99.99,FreeWX 2.04,2013-03-11 00:10:00,
2013-03-10 20:15:00,37.6,25.3,29.76,North,-999,0.0,0.0,61,0.00,,,-99.99,FreeWX 2.04,2013-03-11 00:15:00,
2013-03-10 20:20:00,37.4,25.5,29.76,North,-999,0.0,0.0,62,0.00,,,-99.99,FreeWX 2.04,2013-03-11 00:20:00,
2013-03-10 20:25:00,37.4,25.5,29.76,North,-999,0.0,0.0,62,0.00,,,-99.99,FreeWX 2.04,2013-03-11 00:25:00,
2013-03-10 20:30:00,37.0,25.2,29.76,North,-999,0.0,3.1,62,0.00,,,-99.99,FreeWX 2.04,2013-03-11 00:30:00,
2013-03-10 20:35:00,36.9,25.2,29.76,North,-999,0.0,2.7,62,0.00,,,-99.99,FreeWX 2.04,2013-03-11 00:35:00,
2013-03-10 20:40:00,36.9,25.2,29.76,North,-999,0.0,0.0,62,0.00,,,-99.99,FreeWX 2.04,2013-03-11 00:40:00,
2013-03-10 20:45:00,36.7,25.0,29.76,North,-999,0.0,0.0,62,0.00,,,-99.99,FreeWX 2.04,2013-03-11 00:45:00,
2013-03-10 20:50:00,36.7,25.3,29.79,North,-999,0.0,0.0,63,0.00,,,-99.99,FreeWX 2.04,2013-03-11 00:50:00,
2013-03-10 20:55:00,36.7,25.3,29.79,North,-999,0.0,0.0,63,0.00,,,-99.99,FreeWX 2.04,2013-03-11 00:55:00,
2013-03-10 21:00:00,36.7,25.3,29.79,North,-999,0.0,0.0,63,0.00,,,-99.99,FreeWX 2.04,2013-03-11 01:00:00,
2013-03-10 21:05:00,36.7,25.3,29.79,North,-999,0.0,0.0,63,0.00,,,-99.99,FreeWX 2.04,2013-03-11 01:05:00,
2013-03-10 21:10:00,36.7,25.3,29.79,North,-999,0.0,0.0,63,0.00,,,-99.99,FreeWX 2.04,2013-03-11 01:10:00,